[[{"header":{"parameterUnit":"m.s-1","parameterCategory":1,"la1":30.2991,"la2":30.254,"lo1":-89.0895,"lo2":-89.0444,"dy":0.0017,"dx":0.0017,"nx":28,"ny":28,"refTime":"2025-04-04T09:00:00:Z","depth":0,"parameterNumber":2,"parameterNumberName":"U-component_of_WINDS"},"data":[0,0,0,0,0,0,0,0,0,0,0,0,0,0,0,0,0,0,0,0,0,0,0,0,0,0,0,0,0,0,0,0,0,0,0,0,0,0,0,0,0,0,0,0,0,0,0,0,0,0,0,0,0,0,0,0,0,0,-4.2934,-4.2936,0,-4.3045,-4.3047,-4.3048,-4.3057,-4.3056,-4.3055,-4.3054,-4.3167,-4.3171,-4.3175,0,0,0,0,0,0,0,0,0,0,0,0,0,-4.2731,-4.2734,-4.2934,-4.2936,-4.2937,-4.3045,-4.3047,-4.3048,-4.3058,-4.3056,-4.3055,-4.3053,-4.3166,-4.3171,-4.3176,0,0,0,0,0,0,0,0,0,0,0,0,0,-4.2828,-4.2735,-4.2934,-4.2955,-4.2958,-4.3045,-4.3047,-4.3049,-4.3058,-4.3056,-4.3054,-4.3053,-4.3164,-4.317,-4.3176,-4.325,0,0,-4.3195,-4.3198,0,0,0,0,0,0,0,0,-4.2822,-4.2835,-4.295,-4.2954,-4.2957,-4.3036,-4.3016,-4.3116,-4.3058,-4.302,-4.3054,-4.3052,-4.3125,-4.3134,-4.3159,-4.3255,-4.326,-4.3196,-4.3199,-4.3202,-4.3204,0,0,0,0,0,0,0,-4.2816,-4.2831,-4.2978,-4.2952,-4.2956,-4.2959,-4.2971,-4.3035,-4.3081,-4.3023,-4.3024,-4.3037,-4.3126,-4.3153,-4.3162,-4.3262,-4.3196,-4.3201,-4.3205,-4.3207,-4.3424,-4.3426,0,0,0,0,0,0,-4.2805,-4.2825,-4.2975,-4.2982,-4.2884,-4.2964,-4.2977,-4.3012,-4.308,-4.3089,-4.3039,-4.3037,-4.3143,-4.3154,-4.3166,-4.3256,-4.3202,-4.3208,-4.3211,-4.3422,-4.3425,-4.3427,0,0,0,0,0,0,-4.2801,-4.2818,-4.297,-4.2904,-4.2923,-4.2969,-4.3009,-4.3015,-4.3042,-4.3092,-4.31,-4.3057,-4.3142,-4.3157,-4.3229,-4.326,-4.3211,-4.3216,-4.342,-4.3423,-4.3426,-4.3437,0,0,0,0,0,0,-4.2795,-4.2817,-4.2845,-4.2904,-4.2927,-4.3032,-4.3011,-4.3019,-4.3053,-4.3052,-4.3112,-4.312,-4.3142,-4.322,-4.3235,-4.3267,-4.3221,-4.3417,-4.3421,-4.3425,-4.3434,-4.344,-4.3445,0,0,0,0,0,-4.2787,-4.2844,-4.2847,-4.2865,-4.2963,-4.3034,-4.3046,-4.3071,-4.3055,-4.3084,-4.3116,-4.3118,-4.3254,-4.3227,-4.3244,-4.3279,-4.3415,-4.342,-4.3425,-4.3432,-4.3439,-4.3445,0,0,0,0,0,0,-4.2787,-4.2852,-4.2856,-4.2933,-4.2978,-4.3035,-4.3072,-4.3078,-4.3128,-4.3125,-4.3153,-4.3167,-4.3237,-4.3266,-4.3234,-4.3354,-4.3333,-4.3342,-4.3333,-4.334,-4.3345,-4.3336,-4.3226,0,0,0,0,0,-4.2796,-4.2848,-4.2902,-4.2965,-4.2987,-4.3026,-4.3057,-4.3072,-4.312,-4.3139,-4.3176,-4.3222,-4.3275,-4.3309,-4.3361,-4.3439,-4.3452,-4.3471,-4.3477,-4.3481,-4.3488,-4.353,-4.3539,-4.3442,-4.3442,-4.3442,0,0,-4.2815,-4.2857,-4.2887,-4.2966,-4.3002,-4.3055,-4.3042,-4.3098,-4.3137,-4.3147,-4.3217,-4.3246,-4.33,-4.3374,-4.3409,-4.34,-4.3518,-4.3487,-4.349,-4.3494,-4.3536,-4.3545,-4.3553,-4.3445,-4.3445,-4.3444,0,0,-4.2875,-4.2913,-4.2969,-4.3006,-4.3061,-4.3087,-4.31,-4.3157,-4.3177,-4.3248,-4.3257,-4.3304,-4.3395,-4.3432,-4.3463,-4.3539,-4.3542,-4.3555,-4.3584,-4.3625,-4.3633,-4.364,-4.3665,-4.3675,-4.3562,-4.3562,-4.3562,0,-4.2892,-4.2971,-4.2997,-4.3053,-4.3087,-4.3099,-4.3156,-4.3191,-4.326,-4.3283,-4.3272,-4.3387,-4.3424,-4.3507,-4.3526,-4.3551,-4.3567,-4.3548,-4.363,-4.3637,-4.3643,-4.3668,-4.3678,-4.3563,-4.3563,-4.3563,-4.3563,0,-4.2988,-4.3043,-4.3082,-4.3149,-4.3187,-4.3243,-4.3278,-4.3314,-4.3326,-4.3352,-4.3424,-4.3469,-4.353,-4.3551,-4.3563,-4.3637,-4.3629,-4.3624,-4.3603,-4.3653,-4.3677,-4.3687,-4.3565,-4.3564,-4.3564,-4.3564,0,0,-4.305,-4.3131,-4.3144,-4.3175,-4.3237,-4.328,-4.3337,-4.3397,-4.3427,-4.3475,-4.3522,-4.36,-4.3595,-4.363,-4.3647,-4.3684,-4.374,-4.3674,-4.3675,-4.3683,-4.3822,-4.3824,-4.3835,-4.3743,-4.3745,-4.3746,-4.3817,0,-4.3117,-4.3218,-4.3243,-4.333,-4.3381,-4.3393,-4.3443,-4.3486,-4.3513,-4.356,-4.359,-4.3644,-4.3635,-4.3656,-4.3692,-4.3725,-4.3767,-4.372,-4.3787,-4.3789,-4.3771,-4.3848,-4.3851,-4.3915,-4.3827,-4.3828,-4.3829,0,-4.3208,-4.3258,-4.3349,-4.3404,-4.3427,-4.3471,-4.3527,-4.3573,-4.3622,-4.3639,-4.3679,-4.3692,-4.3752,-4.373,-4.3812,-4.3779,-4.3808,-4.3828,-4.3832,-4.3837,-4.3811,-4.3854,-4.3936,-4.3945,-4.3845,-4.3843,-4.3842,0,-4.3243,-4.3333,-4.3399,-4.3424,-4.3491,-4.3521,-4.3551,-4.3599,-4.3633,-4.3683,-4.3705,-4.3761,-4.3792,-4.3835,-4.3863,-4.3844,-4.3943,-4.3923,-4.3958,-4.3957,-4.3976,-4.3974,-4.4062,-4.3998,-4.3997,-4.3997,-4.3997,0,-4.3314,-4.3369,-4.3415,-4.3455,-4.3517,-4.3546,-4.3607,-4.3636,-4.3679,-4.3726,-4.3741,-4.3784,-4.3819,-4.3867,-4.389,-4.3954,-4.3968,-4.3983,-4.3988,-4.3981,-4.3979,-4.3999,-4.3995,-4.4,-4.3999,-4.3999,-4.3998,0,-4.3362,-4.3395,-4.3468,-4.3525,-4.3541,-4.3584,-4.3633,-4.3673,-4.3701,-4.3759,-4.3775,-4.3818,-4.3875,-4.3908,-4.3981,-4.3996,-4.4067,-4.407,-4.4049,-4.4051,-4.4084,-4.408,-4.4187,-4.4202,-4.4128,-4.4129,-4.4129,0,-4.3404,-4.3447,-4.3509,-4.3541,-4.3571,-4.3622,-4.3657,-4.3687,-4.3723,-4.3783,-4.3816,-4.3874,-4.3922,-4.4013,-4.4051,-4.4107,-4.4111,-4.4145,-4.4119,-4.411,-4.411,-4.4106,-4.411,-4.4148,-4.4149,-4.4149,-4.415,0,-4.3476,-4.349,-4.354,-4.3595,-4.3636,-4.3682,-4.3727,-4.3752,-4.379,-4.3829,-4.3888,-4.3925,-4.3999,-4.4057,-4.4116,-4.4146,-4.4154,-4.4158,-4.4169,-4.4161,-4.4146,-4.4153,-4.406,-4.4155,-4.4154,-4.4154,-4.4154,-4.4153,-4.3522,-4.356,-4.3609,-4.3664,-4.3701,-4.3743,-4.3782,-4.3815,-4.3865,-4.3927,-4.3942,-4.4004,-4.4053,-4.4132,-4.4164,-4.4213,-4.4207,-4.4223,-4.4226,-4.4229,-4.423,-4.414,-4.4224,-4.4224,-4.4224,-4.4223,-4.4223,0,-4.3593,-4.3625,-4.3675,-4.3737,-4.378,-4.3785,-4.3835,-4.3871,-4.3925,-4.397,-4.4017,-4.4084,-4.414,-4.4183,-4.424,-4.427,-4.4276,-4.4284,-4.4282,-4.4288,-4.4232,-4.4217,-4.4279,-4.4279,-4.4279,-4.4279,-4.4279,-4.4279,-4.3635,-4.3699,-4.3719,-4.3802,-4.3835,-4.3895,-4.3923,-4.3961,-4.3997,-4.4072,-4.4118,-4.4145,-4.419,-4.425,-4.4302,-4.4313,-4.4332,-4.434,-4.4352,-4.4298,-4.4292,-4.4287,-4.4272,-4.4345,-4.4345,-4.4404,-4.4404,-4.4404]},{"header":{"parameterUnit":"m.s-1","parameterCategory":1,"la1":30.2991,"la2":30.254,"lo1":-89.0895,"lo2":-89.0444,"dy":0.0017,"dx":0.0017,"nx":28,"ny":28,"refTime":"2025-04-04T09:00:00:Z","depth":0,"parameterNumber":3,"parameterNumberName":"V-component_of_WINDS"},"data":[0,0,0,0,0,0,0,0,0,0,0,0,0,0,0,0,0,0,0,0,0,0,0,0,0,0,0,0,0,0,0,0,0,0,0,0,0,0,0,0,0,0,0,0,0,0,0,0,0,0,0,0,0,0,0,0,0,0,5.3994,5.3995,0,5.4097,5.4099,5.41,5.407,5.4068,5.4066,5.4064,5.4169,5.4174,5.4179,0,0,0,0,0,0,0,0,0,0,0,0,0,5.377,5.3775,5.3993,5.3995,5.3996,5.4097,5.4099,5.41,5.4071,5.4068,5.4066,5.4063,5.4168,5.4173,5.4179,0,0,0,0,0,0,0,0,0,0,0,0,0,5.387,5.3776,5.3993,5.3994,5.3995,5.4097,5.4099,5.41,5.4071,5.4068,5.4065,5.4062,5.4166,5.4173,5.418,5.4288,0,0,5.4202,5.4205,0,0,0,0,0,0,0,0,5.3864,5.3878,5.3992,5.3994,5.3995,5.4068,5.4058,5.4163,5.4072,5.4042,5.4064,5.406,5.4138,5.4147,5.4174,5.4293,5.4297,5.4202,5.4207,5.421,5.4212,0,0,0,0,0,0,0,5.3857,5.3874,5.4034,5.3994,5.3996,5.3989,5.3999,5.4078,5.4107,5.4044,5.4043,5.4055,5.4138,5.4167,5.4176,5.4299,5.4202,5.4209,5.4213,5.4216,5.4514,5.4518,0,0,0,0,0,0,5.385,5.3868,5.4031,5.4038,5.3921,5.3995,5.4007,5.4048,5.4106,5.4111,5.4058,5.4054,5.4156,5.4168,5.418,5.4312,5.421,5.4217,5.4221,5.4511,5.4515,5.4519,0,0,0,0,0,0,5.3845,5.3864,5.4027,5.3952,5.3973,5.4003,5.4048,5.4051,5.408,5.4116,5.4121,5.4082,5.4154,5.4169,5.4262,5.4315,5.422,5.4226,5.4506,5.4512,5.4517,5.4575,0,0,0,0,0,0,5.3839,5.3863,5.3904,5.3954,5.3977,5.4107,5.4051,5.4056,5.4092,5.4088,5.414,5.4145,5.4153,5.4251,5.4269,5.4323,5.4232,5.4502,5.4509,5.4515,5.4569,5.4582,5.4593,0,0,0,0,0,5.3831,5.3915,5.3906,5.3926,5.4029,5.411,5.4124,5.4131,5.4097,5.4139,5.4162,5.4144,5.4306,5.4261,5.4281,5.4337,5.4498,5.4507,5.4515,5.4563,5.4579,5.4593,0,0,0,0,0,0,5.387,5.3922,5.3912,5.4015,5.4059,5.4105,5.4158,5.4147,5.4201,5.4195,5.4201,5.4213,5.4308,5.4332,5.4281,5.4446,5.4397,5.441,5.4427,5.4443,5.4455,5.4448,5.4238,0,0,0,0,0,5.3891,5.3953,5.3995,5.4082,5.4104,5.4128,5.4164,5.4166,5.4211,5.4229,5.4259,5.4304,5.4365,5.4405,5.4463,5.4572,5.4584,5.4621,5.4633,5.4643,5.4654,5.4716,5.4733,5.4546,5.4546,5.4545,0,0,5.3934,5.397,5.4009,5.4091,5.4125,5.419,5.4143,5.4213,5.4262,5.4239,5.4329,5.4353,5.4403,5.4505,5.4551,5.4528,5.4709,5.4654,5.4661,5.4667,5.4726,5.4744,5.476,5.4551,5.455,5.4549,0,0,5.4047,5.4079,5.4157,5.4192,5.4245,5.426,5.4279,5.4328,5.4343,5.4434,5.4419,5.4477,5.4582,5.4619,5.4651,5.4781,5.4767,5.48,5.4864,5.4924,5.4939,5.4952,5.5,5.5017,5.481,5.481,5.4811,0,5.4094,5.4191,5.4198,5.427,5.4307,5.4291,5.437,5.4404,5.4473,5.45,5.4472,5.4605,5.4638,5.4749,5.4781,5.4807,5.483,5.4794,5.4936,5.495,5.4962,5.5008,5.5026,5.4814,5.4814,5.4813,5.4813,0,5.4248,5.4316,5.4372,5.444,5.4484,5.4559,5.4577,5.4621,5.4619,5.4638,5.4731,5.477,5.4837,5.4863,5.4862,5.4976,5.496,5.4934,5.4885,5.4984,5.5027,5.5045,5.482,5.4818,5.4817,5.4816,0,0,5.4387,5.446,5.448,5.4512,5.457,5.4623,5.4698,5.4765,5.4803,5.4851,5.4915,5.5005,5.4983,5.502,5.5023,5.5076,5.5179,5.5045,5.5046,5.507,5.5309,5.5328,5.5349,5.517,5.5173,5.5176,5.5305,0,5.4506,5.4639,5.4648,5.4769,5.4833,5.4819,5.4885,5.4928,5.4948,5.5005,5.5027,5.5092,5.5056,5.5079,5.513,5.5155,5.5227,5.5146,5.523,5.5233,5.522,5.5371,5.5392,5.5512,5.5322,5.5325,5.5327,0,5.4662,5.4717,5.4845,5.4896,5.4923,5.4982,5.5045,5.51,5.5149,5.516,5.5203,5.5199,5.5277,5.5225,5.5334,5.5279,5.5314,5.5332,5.5336,5.5346,5.5287,5.5386,5.555,5.5569,5.5353,5.5351,5.5349,0,5.4754,5.4859,5.495,5.4977,5.5039,5.5081,5.5109,5.5155,5.5195,5.525,5.5276,5.5339,5.5374,5.5423,5.5437,5.5397,5.5546,5.5495,5.5558,5.5558,5.5591,5.5589,5.5765,5.5611,5.5611,5.5611,5.561,0,5.4887,5.4966,5.4992,5.5048,5.5137,5.5147,5.5234,5.5259,5.53,5.5361,5.5353,5.541,5.5425,5.5485,5.5496,5.5586,5.5601,5.5613,5.5615,5.5615,5.5614,5.5639,5.5631,5.5615,5.5614,5.5613,5.5613,0,5.5004,5.5025,5.5123,5.5174,5.5189,5.5252,5.5296,5.535,5.5369,5.5446,5.5465,5.5495,5.5566,5.5585,5.5669,5.5677,5.5783,5.5777,5.5767,5.5768,5.5831,5.5826,5.6031,5.6059,5.5885,5.5887,5.5888,0,5.5089,5.5149,5.5207,5.5248,5.5278,5.5343,5.5384,5.5397,5.544,5.5503,5.555,5.562,5.5677,5.5791,5.582,5.5885,5.5882,5.5949,5.5891,5.589,5.5885,5.5882,5.5889,5.596,5.5962,5.5964,5.5965,0,5.5236,5.5244,5.5304,5.537,5.542,5.5471,5.552,5.5554,5.5573,5.5623,5.5696,5.574,5.5828,5.5898,5.5964,5.5993,5.5983,5.5983,5.6001,5.6002,5.5995,5.6002,5.5799,5.5978,5.5977,5.5976,5.5975,5.5975,5.5341,5.5396,5.5446,5.5514,5.5552,5.5599,5.5653,5.568,5.5741,5.5814,5.5817,5.5897,5.5947,5.6035,5.6067,5.6131,5.611,5.6137,5.6144,5.6151,5.6157,5.5984,5.6142,5.6142,5.6142,5.6141,5.6141,0,5.5491,5.5523,5.5585,5.5655,5.5709,5.5695,5.575,5.5796,5.5867,5.5914,5.5971,5.6056,5.6124,5.616,5.6229,5.6273,5.627,5.629,5.6288,5.6295,5.617,5.6148,5.6291,5.6291,5.6291,5.6291,5.6291,5.6291,5.5575,5.5667,5.5681,5.5792,5.5824,5.5903,5.5935,5.5979,5.6017,5.6113,5.617,5.6193,5.6236,5.6308,5.6371,5.638,5.6406,5.643,5.6436,5.6319,5.6304,5.6289,5.6269,5.6435,5.6435,5.6556,5.6557,5.6558]}]]